Hlavní strana
METAR-TAF:

METAR-TAF

Letiště :

Franceville, Gabon

zeměpisná šířka: 01-39S, zeměpisná délka: 013-26E, výška: 441 m

Aktuální stav počasí

Zpráva byla vytvořena před 29 minutami, v 09:00 UTC
Severní vítr 8 kt, proměnlivý mezi severoseverozápadním a severoseverovýchodním
Teplota 22°C
Vlhkost vzduchu 94%
Tlak 1016 hPa
Viditelnost 10 km a více
Polojasno ve výšce 600 ft
Zataženo ve výšce 1300 ft

METAR: FOON 170900Z 36008KT 330V030 9999 SCT006 OVC013 22/21 Q1016

Čas: 10:29 (09:29 UTC)


TAF: chybějící

Stav a předpovědi počasí z více než 4 000 letišť (zprávy METAR a TAF).

Červené a žluté tečky na mapě představují dostupné meteorologické stanice.

Když kurzor umístíte na tečku, zobrazí se název stanice.

Pak kliknutím zobrazíte stav a předpověď počasí.

Chcete-li změnit mapu, kliknutím na zelené tlačítko se znaménkem +mapu přiblížíte, kliknutím na zelené tlačítko se znaménkem – mapu oddálíte a kliknutím na zelené šipky přejdete na sousední mapy.


METAR-TAF: